Regional Weather Roundup
Issued by NWS Upton, NY

Current Version | Previous Version | Graphics & Text | Print | Product List | Glossary Off
Versions: 1 2 3 4 5 6 7 8 9 10 11 12 13 14 15 16 17 18 19 20 21 22 23 24 25 26 27 28 29 30 31 32 33 34 35 36 37 38 39 40 41 42 43 44 45 46 47 48 49 50

000
ASUS41 KOKX 280004
RWROKX

REGIONAL WEATHER ROUNDUP
NATIONAL WEATHER SERVICE NEW YORK NY
800 PM EDT THU AUG 27 2015

NOTE: "FAIR" INDICATES FEW OR NO CLOUDS BELOW 12,000 FEET WITH NO
SIGNIFICANT WEATHER AND/OR OBSTRUCTIONS TO VISIBILITY.

NYZ071-072-176-178-NJZ106-104-280100-
NEW YORK CITY METRO AREA


CITY           SKY/WX    TMP DP  RH WIND       PRES   REMARKS
CENTRAL PARK   CLEAR     74  51  44 VRB5      30.10R
LAGUARDIA APRT PTCLDY    74  53  48 NW14      30.06R
KENNEDY INTL   PTCLDY    75  52  44 NW15      30.07R
NEWARK/LIBERTY PTCLDY    74  53  48 NW14G21   30.07R
BRNX BOT. GARD   N/A     72  52  49 N10       30.08R
TETERBORO      CLEAR     72  50  45 NW6       30.06R
$$

NYZ177-179-078>081-280100-
LONG ISLAND NEW YORK

CITY           SKY/WX    TMP DP  RH WIND       PRES   REMARKS
FARMINGDALE    PTCLDY    75  53  46 NW8       30.06R
ISLIP          PTCLDY    73  54  51 NW6       30.04R
SHIRLEY        PTCLDY    71  56  58 NW5       30.06R
WESTHAMPTON    CLEAR     73  54  51 W5        30.06R
MONTAUK POINT    N/A     74  61  63 W5        30.05R
$$

NYZ052-065-067-280100-
HUDSON VALLEY

CITY           SKY/WX    TMP DP  RH WIND       PRES   REMARKS
WHITE PLAINS   PTCLDY    70  52  52 W8        30.07R
NEWBURGH       CLEAR     68  57  68 NW9       30.09R
MONTGOMERY     CLEAR     67  55  65 W3        30.08R
POUGHKEEPSIE   MOCLDY    71  55  56 W5        30.06R
ALBANY         MOCLDY    67  55  65 W7        30.07R
$$

NJZ001-105-106-008-010-013-015-019>022-104-280100-
NEW JERSEY

CITY           SKY/WX    TMP DP  RH WIND       PRES   REMARKS
NEWARK/LIBERTY PTCLDY    74  53  48 NW14G21   30.07R
TETERBORO      CLEAR     72  50  45 NW6       30.06R
CALDWELL       CLEAR     71  52  50 CALM      30.08S
MORRISTOWN     MOCLDY    72  55  56 N3        30.09R
SOMERVILLE     PTCLDY    68  55  63 CALM      30.07R
SUSSEX         PTCLDY    65  55  70 CALM      30.09S
ANDOVER          N/A     62  57  83 CALM      30.10S
TRENTON        CLEAR     71  54  54 NW3       30.08R
MILLVILLE      PTCLDY    72  56  57 NW5       30.08R
ATLANTIC CITY  MOCLDY    73  56  54 CALM      30.07R
WRIGHTSTOWN    NOT AVBL
TOMS RIVER     PTCLDY    70  55  60 NW5       30.07S
BELMAR         PTCLDY    72  54  53 NW6       30.07R
$$

PAZ047>061-062-071-280100-
EASTERN PENNSYLVANIA

CITY           SKY/WX    TMP DP  RH WIND       PRES   REMARKS
PHILADELPHIA   PTCLDY    76  51  41 N7        30.09R
ALLENTOWN      CLEAR     69  54  58 CALM      30.10R
SCRANTON       CLOUDY    68  53  58 NW6       30.12R
$$

CTZ002-004>006-009-010-012-RIZ004-006-007-MAZ004-011-015-280100-
SOUTHERN NEW ENGLAND
 IN CT

CITY           SKY/WX    TMP DP  RH WIND       PRES   REMARKS
BRADLEY INTL   MOCLDY    70  56  61 NW5       30.04R
HARTFORD       CLEAR     73  55  53 NW9       30.04R
DANBURY        CLEAR     66  55  67 SW5       30.08R
WTRBRY/OXFORD  PTCLDY    66  52  59 CALM      30.08S
BRIDGEPORT     CLEAR     75  55  49 NW7       30.05R
MERIDEN        PTCLDY    68  57  68 NW3       30.05R
NEW HAVEN      CLEAR     73  55  53 NW6       30.05R
CHESTER        NOT AVBL
GROTON         CLEAR     70  60  70 CALM      30.03R
WILLIMANTIC    CLEAR     71  57  61 CALM      30.04R

 IN RI

CITY           SKY/WX    TMP DP  RH WIND       PRES   REMARKS
PROVIDENCE     PTCLDY    72  55  55 W7        30.03R
BLOCK ISLAND   PTCLDY    72  64  78 SW6       30.04R
WESTERLY       CLEAR     71  56  58 W3        30.04R

 IN MA

CITY           SKY/WX    TMP DP  RH WIND       PRES   REMARKS
BOSTON         PTCLDY    75  52  44 W12       30.01R
WORCESTER      CLEAR     65  55  70 W9        30.06R
WESTFIELD      MOCLDY    69  57  65 NW6       30.05R
PROVINCETOWN   PTCLDY    66  57  72 SW3       30.01R
NANTUCKET      MOCLDY    70  63  78 W12       30.01R
$$

ANZ330-335-338-340-345-350-353-355-280100-
COASTAL MARINE OBSERVATIONS


STATION/POSITION TIME  SKY/WX   TEMP    WIND        PRES    VSBY  WAVE
                                AIR SEA DIR/SP/G                  HT/PER
                 (UTC)          (F)     (DEG/KT/KT) (MB)    (MI)  (FT/S)
NY HARB ENTRANCE 2250            76 77  300/ 14/ 16 1017.1          2/11
4S FIRE IS       NOT AVBL
20S FIRE ISLAND  2250            75 75  270/ 12/ 14 1017.0          2/10
GREAT SOUTH BAY  2300            76 79  360/  4/  6   N/A
23SW MTP         2350            73 73  260/ 12/ 14 1016.8          3/10
HUDSON CANYON    NOT AVBL
KINGS POINT      2300            75 74   10/ 10/ 15 1017.0
EXECUTION ROCKS  2300            77     300/ 12/ 16   N/A
CENTRAL LI SOUND NOT AVBL
EASTERN LI SOUND 2300            74 72  280/  6/ 10   N/A
ROBBINS REEF     2300            75     310/ 13/ 15 1016.8
$$


>>>>>>>>>>>>>>>>>>>>>>>>>>>> KEY <<<<<<<<<<<<<<<<<<<<<<<<<<<
>                                                          <
>     SKY/WX - SKY CONDITION/PRESENT WEATHER               <
>     TMP    - TEMPERATURE IN FAHRENHEIT                   <
>     DP     - DEWPOINT IN FAHRENHEIT                      <
>     RH     - RELATIVE HUMIDITY IN PERCENT                <
>     WIND   - DIRECTION AND SPEED IN MPH                  <
>     PRES   - MEAN SEA LEVEL PRESSURE IN INCHES OF HG     <
>     WCI    - WIND CHILL INDEX                            <
>     VSB    - VISIBILITY IN MILES                         <
>     HX     - HEAT INDEX                                  <
>     TC     - TEMPERATURE IN CELSIUS                      <
>     VRB    - VARIABLE WIND DIRECTION                     <
>                                                          <
>>>>>>>>>>>>>>>>>>>>>>>>>>>> KEY <<<<<<<<<<<<<<<<<<<<<<<<<<<





USA.gov is the U.S. government's official web portal to all federal, state and local government web resources and services.